Hourly Weather Mason City

Today, 9 May, Sunday

Time Temperature Precipitation Wind Pressure Humidity
00:00 +2°C° 1.7 mm 5 mps 729 mmHg 94%
01:00 +2°C° 0.2 mm 5 mps 729 mmHg 93%
02:00 +2°C° 0.2 mm 5 mps 728 mmHg 93%
03:00 +2°C° 0.2 mm 5 mps 728 mmHg 93%
04:00 +2°C° 0 mm 5 mps 728 mmHg 92%
05:00 +2°C° 0 mm 5 mps 729 mmHg 90%
06:00 +3°C° 0 mm 5 mps 729 mmHg 89%
07:00 +5°C° 0 mm 5 mps 729 mmHg 83%
08:00 +6°C° 0 mm 5 mps 729 mmHg 77%
09:00 +7°C° 0 mm 5 mps 730 mmHg 71%
10:00 +8°C° 0 mm 5 mps 730 mmHg 67%
11:00 +10°C° 0 mm 4 mps 730 mmHg 63%
12:00 +11°C° 0 mm 4 mps 730 mmHg 59%
13:00 +12°C° 0.1 mm 4 mps 730 mmHg 56%
14:00 +12°C° 0.1 mm 4 mps 730 mmHg 53%
15:00 +13°C° 0.1 mm 4 mps 730 mmHg 51%
16:00 +12°C° 0.1 mm 4 mps 730 mmHg 55%
17:00 +12°C° 0.1 mm 4 mps 731 mmHg 59%
18:00 +11°C° 0.1 mm 4 mps 731 mmHg 63%
19:00 +10°C° 0 mm 3 mps 731 mmHg 65%
20:00 +9°C° 0 mm 3 mps 732 mmHg 66%
21:00 +8°C° 0 mm 2 mps 732 mmHg 68%
22:00 +8°C° 0 mm 2 mps 732 mmHg 71%
23:00 +7°C° 0 mm 2 mps 733 mmHg 74%

Tomorrow, 10 May, Monday

Time Temperature Precipitation Wind Pressure Humidity
00:00 +6°C° 0 mm 2 mps 733 mmHg 77%
01:00 +6°C° 0 mm 2 mps 733 mmHg 80%
02:00 +5°C° 0 mm 2 mps 733 mmHg 82%
03:00 +5°C° 0 mm 2 mps 733 mmHg 85%
04:00 +5°C° 0 mm 2 mps 734 mmHg 86%
05:00 +5°C° 0 mm 2 mps 734 mmHg 87%
06:00 +5°C° 0 mm 2 mps 735 mmHg 88%
07:00 +5°C° 0 mm 3 mps 735 mmHg 81%
08:00 +7°C° 0 mm 3 mps 735 mmHg 73%
09:00 +8°C° 0 mm 4 mps 736 mmHg 65%
10:00 +8°C° 0.1 mm 4 mps 736 mmHg 60%
11:00 +10°C° 0.1 mm 4 mps 736 mmHg 55%
12:00 +11°C° 0.1 mm 4 mps 736 mmHg 50%
13:00 +11°C° 0 mm 4 mps 736 mmHg 47%
14:00 +12°C° 0 mm 4 mps 736 mmHg 44%
15:00 +12°C° 0 mm 4 mps 736 mmHg 41%
16:00 +12°C° 0 mm 3 mps 736 mmHg 42%
17:00 +11°C° 0 mm 3 mps 736 mmHg 44%
18:00 +11°C° 0 mm 3 mps 736 mmHg 45%
19:00 +10°C° 0 mm 3 mps 736 mmHg 50%
20:00 +8°C° 0 mm 2 mps 737 mmHg 56%
21:00 +7°C° 0 mm 2 mps 737 mmHg 61%
22:00 +6°C° 0 mm 2 mps 737 mmHg 62%
23:00 +7°C° 0 mm 1 mps 737 mmHg 62%

Day after tomorrow, 11 May, Tuesday

Time Temperature Precipitation Wind Pressure Humidity
00:00 +6°C° 0 mm 1 mps 738 mmHg 63%
01:00 +6°C° 0 mm 1 mps 738 mmHg 63%
02:00 +6°C° 0 mm 1 mps 738 mmHg 63%
03:00 +6°C° 0 mm 1 mps 738 mmHg 64%
04:00 +5°C° 0 mm 0 mps 739 mmHg 64%
05:00 +5°C° 0 mm 0 mps 739 mmHg 65%
06:00 +6°C° 0 mm 0 mps 740 mmHg 65%
07:00 +7°C° 0 mm 0 mps 740 mmHg 59%
08:00 +9°C° 0 mm 0 mps 740 mmHg 53%
09:00 +11°C° 0 mm 0 mps 741 mmHg 47%
10:00 +13°C° 0 mm 1 mps 740 mmHg 43%
11:00 +14°C° 0 mm 1 mps 740 mmHg 39%
12:00 +15°C° 0 mm 1 mps 740 mmHg 35%
13:00 +15°C° 0 mm 1 mps 740 mmHg 35%
14:00 +15°C° 0 mm 1 mps 739 mmHg 35%
15:00 +16°C° 0 mm 1 mps 739 mmHg 34%
16:00 +15°C° 0 mm 1 mps 739 mmHg 37%
17:00 +15°C° 0 mm 1 mps 739 mmHg 40%
18:00 +15°C° 0 mm 1 mps 739 mmHg 43%
19:00 +14°C° 0 mm 1 mps 740 mmHg 46%
20:00 +13°C° 0 mm 1 mps 740 mmHg 49%
21:00 +10°C° 0 mm 2 mps 740 mmHg 52%
22:00 +10°C° 0 mm 2 mps 741 mmHg 56%
23:00 +10°C° 0 mm 2 mps 741 mmHg 59%

12 May, Wednesday

Time Temperature Precipitation Wind Pressure Humidity
00:00 +9°C° 0 mm 2 mps 741 mmHg 63%
01:00 +9°C° 0 mm 2 mps 741 mmHg 64%
02:00 +9°C° 0 mm 2 mps 741 mmHg 65%
03:00 +8°C° 0 mm 2 mps 741 mmHg 66%
04:00 +9°C° 0 mm 1 mps 741 mmHg 67%
05:00 +10°C° 0 mm 1 mps 741 mmHg 68%
06:00 +10°C° 0 mm 1 mps 741 mmHg 69%
07:00 +10°C° 0 mm 2 mps 742 mmHg 65%
08:00 +12°C° 0 mm 2 mps 742 mmHg 61%
09:00 +13°C° 0 mm 2 mps 742 mmHg 58%
10:00 +14°C° 0.1 mm 2 mps 742 mmHg 53%
11:00 +15°C° 0.1 mm 2 mps 742 mmHg 48%
12:00 +16°C° 0.1 mm 2 mps 741 mmHg 44%
13:00 +16°C° 0 mm 2 mps 741 mmHg 43%
14:00 +16°C° 0 mm 2 mps 741 mmHg 43%
15:00 +16°C° 0 mm 2 mps 740 mmHg 43%
16:00 +15°C° 0 mm 2 mps 740 mmHg 45%
17:00 +15°C° 0 mm 2 mps 740 mmHg 48%
18:00 +15°C° 0 mm 2 mps 740 mmHg 50%
19:00 +13°C° 0 mm 2 mps 740 mmHg 55%
20:00 +12°C° 0 mm 2 mps 740 mmHg 59%
21:00 +10°C° 0 mm 2 mps 740 mmHg 64%
22:00 +9°C° 0 mm 2 mps 740 mmHg 66%
23:00 +9°C° 0 mm 2 mps 740 mmHg 69%

13 May, Thursday

Time Temperature Precipitation Wind Pressure Humidity
00:00 +8°C° 0 mm 2 mps 740 mmHg 71%
01:00 +8°C° 0 mm 2 mps 740 mmHg 73%
02:00 +7°C° 0 mm 2 mps 740 mmHg 75%
03:00 +7°C° 0 mm 2 mps 740 mmHg 77%
04:00 +8°C° 0 mm 1 mps 740 mmHg 77%
05:00 +9°C° 0 mm 1 mps 740 mmHg 78%
06:00 +9°C° 0 mm 1 mps 740 mmHg 78%
07:00 +11°C° 0 mm 1 mps 740 mmHg 70%
08:00 +12°C° 0 mm 2 mps 739 mmHg 62%
09:00 +14°C° 0 mm 2 mps 739 mmHg 54%
10:00 +15°C° 0 mm 2 mps 739 mmHg 50%
11:00 +14°C° 0 mm 3 mps 739 mmHg 46%
12:00 +16°C° 0 mm 3 mps 738 mmHg 42%
13:00 +16°C° 0 mm 3 mps 738 mmHg 42%
14:00 +16°C° 0 mm 3 mps 737 mmHg 42%
15:00 +17°C° 0 mm 3 mps 737 mmHg 42%
16:00 +16°C° 0 mm 3 mps 737 mmHg 44%
17:00 +16°C° 0 mm 2 mps 736 mmHg 47%
18:00 +16°C° 0 mm 2 mps 736 mmHg 49%
19:00 +14°C° 0 mm 2 mps 736 mmHg 54%
20:00 +12°C° 0 mm 3 mps 736 mmHg 59%
21:00 +10°C° 0 mm 3 mps 736 mmHg 64%
22:00 +10°C° 0 mm 3 mps 736 mmHg 67%
23:00 +9°C° 0 mm 3 mps 736 mmHg 69%

14 May, Friday

Time Temperature Precipitation Wind Pressure Humidity
00:00 +9°C° 0 mm 3 mps 736 mmHg 72%
01:00 +9°C° 0 mm 2 mps 736 mmHg 75%
02:00 +8°C° 0 mm 2 mps 735 mmHg 79%
03:00 +8°C° 0 mm 2 mps 735 mmHg 82%
04:00 +8°C° 0 mm 2 mps 735 mmHg 83%
05:00 +8°C° 0 mm 2 mps 735 mmHg 83%
06:00 +8°C° 0 mm 2 mps 736 mmHg 83%
07:00 +10°C° 0 mm 3 mps 735 mmHg 75%
08:00 +12°C° 0 mm 4 mps 735 mmHg 67%
09:00 +14°C° 0 mm 5 mps 735 mmHg 59%
10:00 +15°C° 0 mm 5 mps 735 mmHg 56%
11:00 +16°C° 0 mm 5 mps 734 mmHg 53%
12:00 +17°C° 0 mm 5 mps 734 mmHg 49%
13:00 +16°C° 0.3 mm 5 mps 734 mmHg 56%
14:00 +15°C° 0.3 mm 5 mps 733 mmHg 62%
15:00 +14°C° 0.3 mm 5 mps 733 mmHg 69%
16:00 +14°C° 0 mm 5 mps 732 mmHg 71%
17:00 +14°C° 0 mm 5 mps 732 mmHg 72%
18:00 +14°C° 0 mm 5 mps 732 mmHg 74%
19:00 +14°C° 0 mm 5 mps 732 mmHg 76%
20:00 +14°C° 0 mm 5 mps 732 mmHg 79%
21:00 +13°C° 0 mm 5 mps 732 mmHg 81%
22:00 +13°C° 0 mm 5 mps 731 mmHg 82%
23:00 +13°C° 0 mm 5 mps 731 mmHg 82%
Show more